This is the latest recevied weather packets stored in our database for station/object EA2DXT-10. If no packets are shown the sender has not sent any weather packets the latest 10 day(s).
| Time | Temp. | Humidity | Pressure | Rain* | Wind** | Luminosity | Snow |
|---|---|---|---|---|---|---|---|
| 1777491144 | 12.78° C | 81% | 942.8 hPa | - | - | - | - |
| 1777491127 | 11.11° C | 81% | 940.2 hPa | - | - | - | - |
| 1777491115 | 12.78° C | 80% | 942.8 hPa | - | - | - | - |
| 1777487549 | 14.44° C | 79% | 942.7 hPa | - | - | - | - |
| 1777487518 | 14.44° C | 79% | 942.7 hPa | - | - | - | - |
| 1777486683 | 15° C | 78% | 942.4 hPa | - | - | - | - |
| 1777485783 | 15° C | 77% | 942 hPa | - | - | - | - |
| 1777484004 | 13.33° C | 76% | 942 hPa | - | - | - | - |
| 1777483082 | 13.33° C | 76% | 942.2 hPa | - | - | - | - |
| 1777480381 | 12.78° C | 73% | 941.9 hPa | - | - | - | - |
| 1777479481 | 13.33° C | 71% | 942.3 hPa | - | - | - | - |
| 1777478600 | 14.44° C | 69% | 942 hPa | - | - | - | - |
| 1777477681 | 15° C | 67% | 933.2 hPa | - | - | - | - |
| 1777473179 | 22.78° C | 68% | 940.8 hPa | - | - | - | - |
| 1777472278 | 21.67° C | 71% | 940.5 hPa | - | - | - | - |
| 1777471378 | 17.78° C | 73% | 940.4 hPa | - | - | - | - |
| 1777465805 | 23.33° C | 72% | 940.9 hPa | - | - | - | - |
| 1777462204 | 24.44° C | 76% | 941.1 hPa | - | - | - | - |
| 1777461326 | 20° C | 84% | 941.2 hPa | - | - | - | - |
| 1777461304 | 19.44° C | 84% | 939.6 hPa | - | - | - | - |
| 1777461291 | 20° C | 84% | 941.2 hPa | - | - | - | - |
| 1777460391 | 21.67° C | 80% | 941.2 hPa | - | - | - | - |
| 1777460374 | 21.67° C | 80% | 941.3 hPa | - | - | - | - |
| 1777460363 | 21.67° C | 79% | 941.1 hPa | - | - | - | - |
| 1777458533 | 20° C | 83% | 941.3 hPa | - | - | - | - |
* Rain since midnight (hover to see other rain measurements)
** Current wind speed in m/s (hover to see current wind gust speed)